| time (UTC) | temp F | wind direction | speed knots | gust knots | rain 1hr in | rain 24hr in | rain mn in | humidity % | barometer mb |
| 20260504175832 | 71 | 187 | 0.9 | 0.9 | 0.00 | 0.00 | 0.00 | 36 | 1011.8 |
| 20260504175328 | 72 | 217 | 2.6 | 3.5 | 0.00 | 0.00 | 0.00 | 37 | 1011.9 |
| 20260504174827 | 71 | 62 | 3.5 | 6.1 | 0.00 | 0.00 | 0.00 | 35 | 1012.0 |
| 20260504174324 | 71 | 226 | 2.6 | 2.6 | 0.00 | 0.00 | 0.00 | 36 | 1012.1 |
| 20260504173821 | 70 | 188 | 1.7 | 2.6 | 0.00 | 0.00 | 0.00 | 41 | 1012.2 |
| 20260504173317 | 70 | 164 | 2.6 | 3.5 | 0.00 | 0.00 | 0.00 | 37 | 1012.3 |
| 20260504172814 | 71 | 219 | 1.7 | 5.2 | 0.00 | 0.00 | 0.00 | 37 | 1012.2 |
| 20260504172311 | 71 | 227 | 0.9 | 2.6 | 0.00 | 0.00 | 0.00 | 40 | 1012.3 |
| 20260504171807 | 71 | 344 | 0.9 | 1.7 | 0.00 | 0.00 | 0.00 | 36 | 1012.3 |
| 20260504171304 | 71 | 207 | 1.7 | 1.7 | 0.00 | 0.00 | 0.00 | 39 | 1012.3 |
| 20260504170801 | 70 | 180 | 0.9 | 1.7 | 0.00 | 0.00 | 0.00 | 37 | 1012.5 |
| 20260504170258 | 70 | 205 | 5.2 | 6.1 | 0.00 | 0.00 | 0.00 | 41 | 1012.5 |
| 20260504160216 | 69 | 179 | 1.7 | 1.7 | 0.00 | 0.00 | 0.00 | 38 | 1013.6 |
| 20260504151144 | 67 | 210 | 2.6 | 3.5 | 0.00 | 0.00 | 0.00 | 44 | 1013.9 |
| 20260504150642 | 66 | 222 | 2.6 | 3.5 | 0.00 | 0.00 | 0.00 | 47 | 1013.8 |
| 20260504150138 | 66 | 180 | 1.7 | 2.6 | 0.00 | 0.00 | 0.00 | 45 | 1013.7 |
| 20260504141107 | 64 | 188 | 3.5 | 5.2 | 0.00 | 0.00 | 0.00 | 53 | 1014.1 |
| 20260504140604 | 63 | 251 | 1.7 | 2.6 | 0.00 | 0.00 | 0.00 | 54 | 1014.1 |
| 20260504130527 | 60 | 162 | 0.9 | 0.9 | 0.00 | 0.00 | 0.00 | 57 | 1014.7 |
| 20260504110415 | 50 | 178 | 0.9 | 0.9 | 0.00 | 0.00 | 0.00 | 76 | 1015.7 |
| 20260504100332 | 47 | 196 | 0.0 | 0.0 | 0.00 | 0.00 | 0.00 | 76 | 1015.6 |
| 20260504081726 | 46 | 191 | 0.0 | 0.0 | 0.00 | 0.00 | 0.00 | 72 | 1015.4 |
| 20260504081222 | 46 | 195 | 0.0 | 0.0 | 0.00 | 0.00 | 0.00 | 71 | 1015.4 |
| 20260504080719 | 45 | 180 | 0.9 | 0.9 | 0.00 | 0.00 | 0.00 | 72 | 1015.5 |
| 20260504080215 | 45 | 186 | 0.0 | 0.0 | 0.00 | 0.00 | 0.00 | 72 | 1015.2 |
| 20260504070143 | 45 | 192 | 0.0 | 0.0 | 0.00 | 0.00 | 0.00 | 70 | 1015.0 |
| 20260504060103 | 45 | 190 | 0.0 | 0.0 | 0.00 | 0.00 | 0.00 | 68 | 1015.1 |
| 20260504050531 | 47 | 189 | 0.0 | 0.0 | 0.00 | 0.00 | 0.00 | 62 | 1014.6 |
| 20260504045525 | 48 | 192 | 0.0 | 0.0 | 0.00 | 0.00 | 0.00 | 60 | 1014.7 |
| 20260504045021 | 48 | 192 | 0.0 | 0.0 | 0.00 | 0.00 | 0.00 | 60 | 1014.5 |
| 20260504044518 | 48 | 191 | 0.0 | 0.0 | 0.00 | 0.00 | 0.00 | 61 | 1014.8 |
| 20260504044015 | 48 | 191 | 0.0 | 0.0 | 0.00 | 0.00 | 0.00 | 60 | 1014.7 |
| 20260504043512 | 48 | 185 | 0.0 | 0.0 | 0.00 | 0.00 | 0.00 | 60 | 1014.6 |
| 20260504043010 | 48 | 183 | 0.0 | 0.0 | 0.00 | 0.00 | 0.00 | 60 | 1014.6 |
| 20260504042506 | 48 | 187 | 0.0 | 0.0 | 0.00 | 0.00 | 0.00 | 60 | 1014.5 |
| 20260504042003 | 48 | 181 | 0.0 | 0.0 | 0.00 | 0.00 | 0.00 | 60 | 1014.4 |
| 20260504041459 | 47 | 189 | 0.0 | 0.0 | 0.00 | 0.00 | 0.00 | 60 | 1014.4 |
| 20260504040955 | 47 | 188 | 0.0 | 0.0 | 0.00 | 0.00 | 0.00 | 60 | 1014.3 |
| 20260504040453 | 48 | 185 | 0.0 | 0.0 | 0.00 | 0.00 | 0.00 | 60 | 1014.3 |
| 20260504035949 | 48 | 187 | 0.0 | 0.0 | 0.00 | 0.00 | 0.00 | 59 | 1014.5 |
| 20260504035447 | 48 | 188 | 0.0 | 0.0 | 0.00 | 0.00 | 0.00 | 59 | 1014.2 |
| 20260504034943 | 48 | 186 | 0.0 | 0.0 | 0.00 | 0.00 | 0.00 | 60 | 1014.2 |
| 20260504034440 | 48 | 186 | 0.0 | 0.0 | 0.00 | 0.00 | 0.00 | 59 | 1014.2 |
| 20260504033937 | 48 | 186 | 0.0 | 0.0 | 0.00 | 0.00 | 0.00 | 57 | 1014.1 |
| 20260504033435 | 49 | 191 | 0.0 | 0.0 | 0.00 | 0.00 | 0.00 | 56 | 1014.0 |
| 20260504032932 | 49 | 185 | 0.0 | 0.0 | 0.00 | 0.00 | 0.00 | 56 | 1013.9 |
| 20260504032429 | 49 | 191 | 0.0 | 0.0 | 0.00 | 0.00 | 0.00 | 56 | 1013.7 |
| 20260504031925 | 49 | 186 | 0.0 | 0.0 | 0.00 | 0.00 | 0.00 | 56 | 1013.8 |
| 20260504031422 | 49 | 188 | 0.0 | 0.0 | 0.00 | 0.00 | 0.00 | 55 | 1013.8 |
| 20260504030919 | 50 | 188 | 0.0 | 0.0 | 0.00 | 0.00 | 0.00 | 55 | 1013.9 |
| 20260504030416 | 50 | 202 | 0.9 | 0.9 | 0.00 | 0.00 | 0.00 | 54 | 1013.9 |
| 20260504025912 | 50 | 191 | 0.0 | 0.0 | 0.00 | 0.00 | 0.00 | 54 | 1013.9 |
| 20260504025409 | 50 | 178 | 0.9 | 0.9 | 0.00 | 0.00 | 0.00 | 53 | 1013.8 |
| 20260504024906 | 50 | 198 | 0.0 | 0.9 | 0.00 | 0.00 | 0.00 | 53 | 1013.9 |
| 20260504024403 | 50 | 191 | 0.9 | 1.7 | 0.00 | 0.00 | 0.00 | 53 | 1014.0 |
| 20260504023900 | 50 | 186 | 0.0 | 0.0 | 0.00 | 0.00 | 0.00 | 54 | 1014.0 |
| 20260504023356 | 50 | 193 | 0.9 | 0.9 | 0.00 | 0.00 | 0.00 | 54 | 1014.0 |
| 20260504022852 | 50 | 188 | 0.0 | 0.0 | 0.00 | 0.00 | 0.00 | 53 | 1014.0 |
| 20260504022349 | 50 | 188 | 0.0 | 0.0 | 0.00 | 0.00 | 0.00 | 52 | 1014.0 |
| 20260504021845 | 50 | 184 | 0.0 | 0.0 | 0.00 | 0.00 | 0.00 | 53 | 1013.8 |
| 20260504021343 | 51 | 187 | 0.0 | 0.0 | 0.00 | 0.00 | 0.00 | 52 | 1013.7 |
| 20260504020840 | 51 | 185 | 0.0 | 0.0 | 0.00 | 0.00 | 0.00 | 51 | 1013.7 |
| 20260504020336 | 51 | 188 | 0.0 | 0.9 | 0.00 | 0.00 | 0.00 | 51 | 1013.7 |
| 20260504015832 | 51 | 184 | 0.9 | 0.9 | 0.00 | 0.00 | 0.00 | 51 | 1014.0 |
| 20260504015329 | 51 | 191 | 0.9 | 0.9 | 0.00 | 0.00 | 0.00 | 51 | 1013.8 |
| 20260504014825 | 51 | 192 | 0.0 | 0.0 | 0.00 | 0.00 | 0.00 | 51 | 1013.4 |
| 20260504014321 | 51 | 191 | 0.0 | 0.0 | 0.00 | 0.00 | 0.00 | 51 | 1013.7 |
| 20260504013819 | 51 | 165 | 0.0 | 0.0 | 0.00 | 0.00 | 0.00 | 50 | 1013.7 |
| 20260504013317 | 51 | 187 | 0.0 | 0.9 | 0.00 | 0.00 | 0.00 | 50 | 1013.8 |
| 20260504012813 | 52 | 192 | 0.9 | 0.9 | 0.00 | 0.00 | 0.00 | 49 | 1013.7 |
| 20260504012311 | 51 | 189 | 0.0 | 0.0 | 0.00 | 0.00 | 0.00 | 49 | 1013.7 |
| 20260504011808 | 51 | 189 | 0.0 | 0.9 | 0.00 | 0.00 | 0.00 | 49 | 1013.6 |
| 20260504011304 | 51 | 190 | 0.0 | 0.0 | 0.00 | 0.00 | 0.00 | 49 | 1013.3 |
| 20260504010800 | 52 | 189 | 0.0 | 0.0 | 0.00 | 0.00 | 0.00 | 47 | 1013.2 |
| 20260504010256 | 52 | 188 | 0.0 | 0.0 | 0.00 | 0.00 | 0.00 | 48 | 1013.2 |
| 20260504005753 | 52 | 188 | 0.0 | 0.0 | 0.00 | 0.00 | 0.00 | 47 | 1013.1 |
| 20260504005250 | 52 | 188 | 0.0 | 0.0 | 0.00 | 0.00 | 0.00 | 47 | 1013.1 |
| 20260504004748 | 53 | 188 | 0.0 | 0.9 | 0.00 | 0.00 | 0.00 | 46 | 1013.1 |
| 20260504004245 | 53 | 188 | 0.0 | 0.9 | 0.00 | 0.00 | 0.00 | 45 | 1012.9 |
| 20260504003741 | 53 | 187 | 0.0 | 0.0 | 0.00 | 0.00 | 0.00 | 44 | 1012.9 |
| 20260504003238 | 54 | 188 | 0.0 | 0.9 | 0.00 | 0.00 | 0.00 | 43 | 1012.9 |
| 20260504002735 | 55 | 187 | 0.0 | 0.0 | 0.00 | 0.00 | 0.00 | 42 | 1012.8 |
| 20260504002232 | 55 | 203 | 0.0 | 0.0 | 0.00 | 0.00 | 0.00 | 41 | 1012.8 |
| 20260504001730 | 56 | 194 | 0.0 | 0.0 | 0.00 | 0.00 | 0.00 | 39 | 1012.5 |
| 20260504001226 | 56 | 186 | 0.0 | 0.9 | 0.00 | 0.00 | 0.00 | 39 | 1012.8 |
| 20260504000723 | 57 | 207 | 0.0 | 0.9 | 0.00 | 0.00 | 0.00 | 38 | 1012.6 |
| 20260504000220 | 57 | 203 | 0.9 | 0.9 | 0.00 | 0.00 | 0.00 | 37 | 1012.7 |
| 20260503235718 | 57 | 194 | 0.9 | 0.9 | 0.00 | 0.00 | 0.00 | 37 | 1012.7 |
| 20260503235215 | 57 | 256 | 0.9 | 0.9 | 0.00 | 0.00 | 0.00 | 37 | 1012.5 |
| 20260503234713 | 57 | 201 | 0.0 | 0.9 | 0.00 | 0.00 | 0.00 | 37 | 1012.3 |
| 20260503234211 | 57 | 183 | 0.0 | 0.0 | 0.00 | 0.00 | 0.00 | 37 | 1012.2 |
| 20260503233708 | 58 | 183 | 0.0 | 0.0 | 0.00 | 0.00 | 0.00 | 36 | 1012.2 |
| 20260503233203 | 59 | 189 | 0.9 | 0.9 | 0.00 | 0.00 | 0.00 | 35 | 1012.2 |
| 20260503232700 | 59 | 216 | 3.5 | 5.2 | 0.00 | 0.00 | 0.00 | 34 | 1012.0 |
| 20260503232157 | 59 | 252 | 0.9 | 0.9 | 0.00 | 0.00 | 0.00 | 34 | 1012.0 |
| 20260503231656 | 59 | 253 | 0.9 | 1.7 | 0.00 | 0.00 | 0.00 | 33 | 1012.3 |
| 20260503231151 | 59 | 292 | 1.7 | 1.7 | 0.00 | 0.00 | 0.00 | 33 | 1012.1 |
| 20260503230648 | 59 | 292 | 1.7 | 1.7 | 0.00 | 0.00 | 0.00 | 33 | 1011.9 |
| 20260503230145 | 60 | 161 | 3.5 | 5.2 | 0.00 | 0.00 | 0.00 | 33 | 1011.8 |
| 20260503225643 | 60 | 241 | 1.7 | 2.6 | 0.00 | 0.00 | 0.00 | 34 | 1012.0 |
| 20260503225143 | 60 | 336 | 0.9 | 1.7 | 0.00 | 0.00 | 0.00 | 33 | 1011.8 |
| 20260503224640 | 60 | 12 | 1.7 | 2.6 | 0.00 | 0.00 | 0.00 | 32 | 1011.9 |
| 20260503224138 | 60 | 260 | 0.9 | 1.7 | 0.00 | 0.00 | 0.00 | 33 | 1012.0 |
| 20260503223636 | 60 | 304 | 1.7 | 1.7 | 0.00 | 0.00 | 0.00 | 32 | 1012.0 |
| 20260503223132 | 60 | 298 | 2.6 | 5.2 | 0.00 | 0.00 | 0.00 | 32 | 1011.9 |
| 20260503222629 | 60 | 352 | 2.6 | 2.6 | 0.00 | 0.00 | 0.00 | 33 | 1011.9 |
| 20260503222127 | 60 | 303 | 2.6 | 3.5 | 0.00 | 0.00 | 0.00 | 32 | 1011.9 |
| 20260503221625 | 60 | 261 | 1.7 | 2.6 | 0.00 | 0.00 | 0.00 | 32 | 1011.9 |
| 20260503221122 | 60 | 238 | 1.7 | 1.7 | 0.00 | 0.00 | 0.00 | 34 | 1011.7 |
| 20260503220619 | 60 | 285 | 2.6 | 3.5 | 0.00 | 0.00 | 0.00 | 32 | 1012.0 |
| 20260503220115 | 60 | 24 | 2.6 | 3.5 | 0.00 | 0.00 | 0.00 | 33 | 1011.9 |
| 20260503215613 | 60 | 199 | 0.0 | 0.0 | 0.00 | 0.00 | 0.00 | 33 | 1012.0 |
| 20260503215109 | 60 | 16 | 0.9 | 1.7 | 0.00 | 0.00 | 0.00 | 33 | 1012.1 |
| 20260503214608 | 60 | 2 | 1.7 | 2.6 | 0.00 | 0.00 | 0.00 | 32 | 1011.9 |
| 20260503214103 | 60 | 359 | 2.6 | 5.2 | 0.00 | 0.00 | 0.00 | 31 | 1012.0 |
| 20260503213603 | 61 | 348 | 2.6 | 2.6 | 0.00 | 0.00 | 0.00 | 33 | 1012.0 |
| 20260503213058 | 61 | 146 | 1.7 | 2.6 | 0.00 | 0.00 | 0.00 | 32 | 1012.1 |
| 20260503212556 | 61 | 310 | 2.6 | 2.6 | 0.00 | 0.00 | 0.00 | 33 | 1011.9 |
| 20260503212053 | 61 | 238 | 3.5 | 3.5 | 0.00 | 0.00 | 0.00 | 32 | 1011.9 |
| 20260503211551 | 62 | 275 | 1.7 | 2.6 | 0.00 | 0.00 | 0.00 | 32 | 1011.8 |
| 20260503211045 | 61 | 253 | 1.7 | 2.6 | 0.00 | 0.00 | 0.00 | 34 | 1011.9 |
| 20260503210543 | 60 | 176 | 3.5 | 5.2 | 0.00 | 0.00 | 0.00 | 33 | 1012.1 |
| 20260503210038 | 60 | 240 | 2.6 | 3.5 | 0.00 | 0.00 | 0.00 | 32 | 1011.9 |
| 20260503205535 | 60 | 359 | 1.7 | 2.6 | 0.00 | 0.00 | 0.00 | 32 | 1011.9 |
| 20260503205032 | 60 | 249 | 2.6 | 3.5 | 0.00 | 0.00 | 0.00 | 33 | 1011.8 |
| 20260503204529 | 60 | 45 | 3.5 | 6.1 | 0.00 | 0.00 | 0.00 | 33 | 1012.0 |
| 20260503204026 | 60 | 286 | 1.7 | 1.7 | 0.00 | 0.00 | 0.00 | 32 | 1011.7 |
| 20260503203523 | 60 | 282 | 3.5 | 5.2 | 0.00 | 0.00 | 0.00 | 33 | 1012.1 |
| 20260503203020 | 60 | 275 | 2.6 | 3.5 | 0.00 | 0.00 | 0.00 | 34 | 1011.8 |
| 20260503202518 | 59 | 301 | 5.2 | 7.0 | 0.00 | 0.00 | 0.00 | 33 | 1011.9 |
| 20260503202016 | 60 | 254 | 5.2 | 5.2 | 0.00 | 0.00 | 0.00 | 33 | 1011.9 |
| 20260503201514 | 59 | 270 | 3.5 | 5.2 | 0.00 | 0.00 | 0.00 | 33 | 1012.3 |
| 20260503201011 | 59 | 279 | 2.6 | 3.5 | 0.00 | 0.00 | 0.00 | 33 | 1012.2 |
| 20260503200507 | 59 | 257 | 1.7 | 2.6 | 0.00 | 0.00 | 0.00 | 34 | 1012.3 |
| 20260503200003 | 59 | 105 | 2.6 | 3.5 | 0.00 | 0.00 | 0.00 | 33 | 1012.0 |
| 20260503195501 | 59 | 294 | 2.6 | 2.6 | 0.00 | 0.00 | 0.00 | 34 | 1012.0 |
| 20260503194957 | 60 | 7 | 2.6 | 3.5 | 0.00 | 0.00 | 0.00 | 32 | 1012.0 |
| 20260503194455 | 60 | 231 | 2.6 | 5.2 | 0.00 | 0.00 | 0.00 | 34 | 1012.1 |
| 20260503193949 | 59 | 204 | 2.6 | 3.5 | 0.00 | 0.00 | 0.00 | 34 | 1011.9 |
| 20260503193446 | 59 | 311 | 3.5 | 3.5 | 0.00 | 0.00 | 0.00 | 34 | 1012.1 |
| 20260503192941 | 59 | 337 | 6.1 | 7.8 | 0.00 | 0.00 | 0.00 | 33 | 1012.5 |
| 20260503192438 | 59 | 217 | 3.5 | 5.2 | 0.00 | 0.00 | 0.00 | 33 | 1012.2 |
| 20260503191933 | 59 | 104 | 1.7 | 2.6 | 0.00 | 0.00 | 0.00 | 33 | 1012.6 |
| 20260503191431 | 59 | 221 | 3.5 | 3.5 | 0.00 | 0.00 | 0.00 | 33 | 1012.4 |
| 20260503190927 | 58 | 317 | 3.5 | 5.2 | 0.00 | 0.00 | 0.00 | 33 | 1012.6 |
| 20260503190425 | 58 | 316 | 2.6 | 2.6 | 0.00 | 0.00 | 0.00 | 32 | 1012.6 |
| 20260503185922 | 58 | 322 | 3.5 | 3.5 | 0.00 | 0.00 | 0.00 | 35 | 1012.8 |
| 20260503185418 | 58 | 333 | 8.7 | 11.3 | 0.00 | 0.00 | 0.00 | 34 | 1012.8 |
| 20260503184917 | 58 | 220 | 2.6 | 3.5 | 0.00 | 0.00 | 0.00 | 35 | 1012.9 |
| 20260503184414 | 59 | 177 | 2.6 | 6.1 | 0.00 | 0.00 | 0.00 | 34 | 1012.9 |
| 20260503183910 | 58 | 269 | 3.5 | 3.5 | 0.00 | 0.00 | 0.00 | 35 | 1012.8 |
| 20260503183407 | 56 | 327 | 3.5 | 3.5 | 0.00 | 0.00 | 0.00 | 35 | 1012.9 |
| 20260503182904 | 57 | 352 | 6.1 | 11.3 | 0.00 | 0.00 | 0.00 | 35 | 1013.0 |
| 20260503182403 | 57 | 244 | 1.7 | 1.7 | 0.00 | 0.00 | 0.00 | 36 | 1013.1 |
| 20260503181900 | 56 | 331 | 5.2 | 7.8 | 0.00 | 0.00 | 0.00 | 36 | 1013.0 |
| 20260503181357 | 57 | 333 | 5.2 | 7.0 | 0.00 | 0.00 | 0.00 | 38 | 1013.1 |
| 20260503180853 | 56 | 232 | 1.7 | 2.6 | 0.00 | 0.00 | 0.00 | 39 | 1013.0 |
| 20260503180351 | 56 | 333 | 3.5 | 5.2 | 0.00 | 0.00 | 0.00 | 40 | 1013.3 |